Regional Weather Roundup
Issued by NWS

Home | Current Version | Previous Version | Graphics & Text | Print | Product List | Glossary On
Versions: 1 2 3 4 5 6 7 8 9 10 11 12 13 14 15 16 17 18 19 20 21 22 23 24 25 26 27 28
000
ASUS45 KTFX 271310
RWRMT
MONTANA REGIONAL WEATHER ROUNDUP
NATIONAL WEATHER SERVICE GREAT FALLS MT
700 AM MDT MON MAR 27 2017

NOTE: "FAIR" INDICATES FEW OR NO CLOUDS BELOW 12000 FEET WITH NO
SIGNIFICANT WEATHER AND/OR OBSTRUCTIONS TO VISIBILITY.

MTZ001>007-043-271400-
WEST OF THE DIVIDE

CITY           SKY/WX    TMP DP  RH WIND       PRES   REMARKS
KALISPELL      CLOUDY    38  37  97 CALM      29.84R
MISSOULA       LGT RAIN  38  38 100 CALM      29.86R
BUTTE          CLOUDY    35  29  78 CALM      29.83S
MULLAN PASS    LGT SNOW  30  30 100 SW3       29.79S VSB 3/4
ANACONDA         N/A     34  30  86 CALM      29.84S
DEER LODGE       N/A     34  30  86 CALM      29.86S
EUREKA           N/A     37  36  93 CALM      29.84R
HAMILTON         N/A     37  34  87 CALM      29.84R
RONAN            N/A     39  36  89 CALM      29.89R
$$

MTZ008-052>055-271400-
SOUTHWEST MONTANA

CITY           SKY/WX    TMP DP  RH WIND       PRES   REMARKS
BOZEMAN        CLOUDY    36  33  89 CALM      29.84R
DILLON         CLOUDY    36  28  73 S6        29.82S WCI  31
W YELLOWSTONE  CLOUDY    32  30  93 S6        29.88R WCI  26
ENNIS          CLOUDY    37  30  75 S8        29.88S WCI  31
THREE FORKS      N/A     38  18  44 CALM      29.85S
$$

MTZ009-010-012-014-046-048-049-054-271400-
EAST SLOPES AND CENTRAL MONTANA

CITY           SKY/WX    TMP DP  RH WIND       PRES   REMARKS
CUT BANK       MOCLDY    36  29  75 SW3       29.79R
GREAT FALLS    CLOUDY    37  30  75 SW10      29.80R WCI  30
MALMSTROM AFB  CLOUDY    40  31  71 W6        29.81R
HELENA         CLOUDY    41  33  73 S3        29.83R
AUGUSTA        MOCLDY    33  29  85 W6        29.80R WCI  28
BOWMANS CRNR     N/A     35  29  78 S6        29.79R WCI  30
CHOTEAU          N/A     36  30  80 W6        29.81S WCI  31
CONRAD           N/A     34  27  76 S3        29.83S
FAIRFIELD        N/A     36  29  75 CALM      29.79R
POWER            N/A     33  27  81 SW8       29.79R WCI  25
RAYNESFORD     MOCLDY    42  31  67 CALM      29.80S
$$

MTZ011-013-016-021-045-047-050-051-271400-
NORTH CENTRAL MONTANA

CITY           SKY/WX    TMP DP  RH WIND       PRES   REMARKS
HAVRE          CLOUDY    37  27  67 E8        29.81S WCI  31
LEWISTOWN      CLOUDY    35  26  69 SE3       29.82R
N BAR RANCH      N/A     32  25  74 W6        29.84S WCI  26
CHINOOK          N/A     39  25  56 E6        29.84R
DENTON         MOCLDY    38  28  66 SW9       29.78S WCI  32
GEYSER         MOCLDY    37  31  79 SW3       29.80S
GRASS RANGE      N/A     35  28  73 SW5       29.79R
STANFORD       CLOUDY    38  30  72 CALM      29.81R
WINIFRED         N/A     43  29  59 SW5       29.81R
$$

MTZ017>020-022>027-061-062-271400-
NORTHEAST MONTANA

CITY           SKY/WX    TMP DP  RH WIND       PRES   REMARKS
GLASGOW        CLOUDY    37  26  64 N6        29.85R
JORDAN           N/A     33  28  81 CALM      29.82S
SIDNEY         CLOUDY    33  28  81 CALM      29.88R
WOLF POINT     MOCLDY    34  29  82 E5        29.87S
MALTA          CLOUDY    34  28  80 E8        29.84S WCI  27
PLENTYWOOD       N/A     34  23  64 CALM      29.89S
POPLAR           N/A     32  27  80 NE8       29.88S WCI  25
$$

MTZ028>42-056>058-271400-
SOUTHCENTRAL AND SOUTHEAST MONTANA

CITY           SKY/WX    TMP DP  RH WIND       PRES   REMARKS
BAKER          MOCLDY    34  31  88 E6        29.87R WCI  29
BILLINGS       CLOUDY    43  32  65 SW8       29.81S
LIVINGSTON     CLOUDY    38  30  73 NW10      29.82S WCI  31
MILES CITY     MOCLDY    38  31  76 N5        29.83S
BIG TIMBER     CLOUDY    41  32  70 W8        29.84S
FORSYTH          N/A     45  37  76 E10       29.80F
HARLOWTON        N/A     35  29  81 NW9       29.82S WCI  27
LAUREL           N/A     37  20  50 W1        29.82S
$$

REGIONAL REPORTS...DAKOTAS

CITY           SKY/WX    TMP DP  RH WIND       PRES   REMARKS
WILLISTON      CLOUDY    30  26  85 NE3       29.89R
MINOT          MOCLDY    34  31  88 NW3       29.89R
DICKINSON      PTCLDY    32  30  92 S9        29.86S WCI  24
BEACH            N/A    N/A N/A N/A MISG        N/A
TIOGA            N/A     28  30 100 CALM      29.89S
WATFORD CITY     N/A     30  30 100 W3        29.88R
BISMARCK       CLEAR     32  30  92 CALM      29.93R
GRAND FORKS    FOG       37  37 100 CALM      29.98R VSB 1/8
FARGO          FOG       31  30  96 E3        29.97R VSB 1/4
BUFFALO SD       N/A     36  34  92 S5        29.82R
RAPID CITY     FOG       24  23  96 CALM      29.88S VSB 1/2
$$

REGIONAL REPORTS...WYOMING/IDAHO/WASHINGTON

CITY           SKY/WX    TMP DP  RH WIND       PRES   REMARKS
GILLETTE       CLOUDY    34  32  92 CALM      29.84R
SHERIDAN       CLOUDY    36  31  82 SW3       29.82S
BUFFALO WY     MOCLDY    38  28  67 NW7       29.82S
CODY           CLOUDY    38  25  59 CALM      29.84R
YELLOWSTONE LA   N/A     28  27  96 CALM      29.89S
IDAHO FALLS    CLOUDY    38  34  85 SW5       29.87S
SALMON         CLOUDY    39  32  75 SW3       29.85R
BOISE          CLOUDY    43  40  89 CALM      29.92R
SPOKANE        CLOUDY    42  39  89 W10       29.85R
$$

REGIONAL REPORTS...ALBERTA

CITY           SKY/WX    TMP DP  RH WIND       PRES   REMARKS
EDMONTON       MOCLDY    32  30  93 E6        29.78R WCI  26
CALGARY        MOCLDY    36  19  51 SW9       29.74R WCI  29
LETHBRIDGE     MOCLDY    36  30  80 SW5       29.77S
MEDICINE HAT   MOCLDY    39  28  65 VRB3      29.80S
WATERTON GATE    N/A     36  30  80 SW8         N/A  WCI  29
CARDSTON         N/A     34  28  80 SW6         N/A  WCI  29
MILK RIVER       N/A     32  28  86 W5          N/A
ONEFOUR          N/A     36  25  64 N1          N/A
$$

REGIONAL REPORTS...SASKATCHEWAN

CITY           SKY/WX    TMP DP  RH WIND       PRES   REMARKS
SWIFT CURRENT  MOCLDY    25  25 100 SE7       29.85S WCI  17
REGINA         FOG       28  28 100 N3        29.92S VSB 1/4
SASKATOON      CLOUDY    27  27 100 E9        29.99R WCI  17
CYPRESS HILLS    N/A     37  14  38 S3          N/A
VAL MARIE        N/A     28  25  86 NE3         N/A
ROCKGLEN         N/A     37  19  48 S6          N/A
ASSINIBOIA       N/A     30  30 100 SE8         N/A  WCI  23
$$




USA.gov is the U.S. government's official web portal to all federal, state and local government web resources and services.